Location: ???????
(41.3339°N, 22.6430°E)
Time: 19:28:45
(UTC+00:00)

Daily predictions for brighter satellites

Satellite Brightness Start Highest point End
(mag) Time Altitude Azimuth Time Altitude Azimuth Time Altitude Azimuth
H-2A R/B 4.3 15:57:32 10° S 16:01:41 41° W 16:05:57 10° NNW
Cosmos 2227 Rocket 3.4 15:57:57 10° N 16:02:15 22° NE 16:06:31 10° ESE
Cosmos 1908 4.1 15:58:58 10° SSW 16:02:44 55° W 16:06:32 10° N
Cosmos 292 Rocket 3.9 15:59:35 10° S 16:04:13 54° ESE 16:08:55 10° NNE
FALCON 9 DEB 2.9 16:05:54 10° SW 16:09:08 81° SE 16:12:22 10° NE
Timation 2 Rocket 4.3 16:05:57 10° NNW 16:12:23 51° ENE 16:19:00 10° SE
Cosmos 1892 4.3 16:10:15 10° NNE 16:12:43 16° ENE 16:15:11 10° ESE
FALCON 9 DEB 2.9 16:11:22 10° SW 16:14:34 83° NW 16:17:44 10° NE
COSMO-SKYMED 1 2.9 16:10:34 10° NNE 16:14:43 43° E 16:18:51 10° S
SMAP 3.7 16:10:45 10° S 16:15:20 62° W 16:19:59 10° NNW
H-2A R/B 3.5 16:12:28 10° ESE 16:16:08 19° ENE 16:19:48 10° NNE
CZ-4B R/B 1.5 16:13:23 10° N 16:16:36 73° WNW 16:19:43 10° SSW
SL-4 R/B 3.8 16:14:26 10° NW 16:16:47 16° N 16:19:13 10° NE
Cosmos 1697 Rocket 4.0 16:14:33 10° SE 16:18:21 19° E 16:22:11 10° ENE
H-2A R/B 4.1 16:14:46 10° N 16:18:22 29° WNW 16:21:54 10° SW
Okean O Rocket 2.6 16:17:15 10° S 16:21:30 52° W 16:25:47 10° NNW
Cosmos 1300 2.6 16:18:09 10° S 16:21:56 74° E 16:25:45 10° NNE
CZ-2D R/B 3.9 16:18:43 10° SE 16:22:09 32° ENE 16:25:35 10° N
Cosmos 1315 Rocket 4.5 16:20:50 10° ESE 16:22:50 14° E 16:22:50 14° E
Cosmos 1346 Rocket 4.4 16:20:41 10° NNE 16:23:09 16° ENE 16:24:10 14° E
FALCON 9 DEB 3.1 16:21:57 10° WSW 16:25:11 70° NW 16:27:59 13° NE
Cosmos 1825 Rocket 3.7 16:21:33 10° N 16:26:00 80° W 16:30:24 10° S
NOAA 11 4.2 16:21:30 10° SSE 16:26:57 88° ENE 16:32:25 10° NNW
Cosmos 1408 4.4 16:25:36 10° NE 16:26:55 14° ENE 16:26:55 14° ENE
YAOGAN 1 3.5 16:24:10 10° SE 16:27:49 27° ENE 16:31:28 10° N
Meteor 2-21 Rocket 4.4 16:23:22 10° N 16:29:34 84° E 16:35:41 10° S
IRS-1C Rocket 4.1 16:26:16 10° SSE 16:31:28 65° ENE 16:36:42 10° N
Cosmos 1553 Rocket 4.2 16:27:14 10° SSE 16:33:18 48° E 16:39:18 10° NNE
FALCON 9 DEB 3.7 16:34:48 10° WSW 16:37:56 49° NW 16:40:13 17° NE
SKYMED 3 4.5 16:34:26 10° NNE 16:38:47 81° ESE 16:43:08 10° S
Cosmos 1726 Rocket 3.8 16:34:57 10° SSW 16:39:16 72° W 16:43:38 10° N
Cosmos 1980 Rocket 3.9 16:37:35 10° SE 16:39:13 14° ESE 16:39:13 14° ESE
Cosmos 2297 Rocket 2.4 16:37:14 10° NNW 16:42:45 50° ENE 16:48:14 10° SE
NOSS 3-3 (A) 4.3 16:40:01 10° S 16:45:11 37° ESE 16:49:23 17° NE
NOSS 3-3 (C) 4.4 16:40:05 10° S 16:45:18 37° ESE 16:49:29 17° NE
In-Cosmos 22 Rocket 4.1 16:40:43 10° N 16:46:01 58° ENE 16:51:23 10° SSE
ERS-2 4.4 16:44:20 10° N 16:47:27 27° WNW 16:50:31 10° SW
Cosmos 1689 Rocket 2.5 16:47:22 10° N 16:50:14 61° WNW 16:53:04 10° SSW
SeaSat 1 3.6 16:49:26 22° ENE 16:50:18 23° NE 16:54:06 10° N
Cosmos 1340 2.5 16:46:39 10° N 16:50:25 64° E 16:54:09 10° SSE
BREEZE-M TANK 3.3 16:43:34 10° W 16:51:33 58° N 16:53:24 27° ENE
Milstar 3 4.0 16:45:48 10° SW 16:51:36 28° S 16:56:10 14° SE
Okean-O 2.5 16:48:41 10° SSE 16:53:04 65° ENE 16:57:27 10° N
ATLAS 2AS CENTAUR R/B 4.3 16:53:25 10° NNW 16:58:39 19° NNE 17:01:09 16° NE
SL-08 R/B 4.3 16:54:01 10° N 17:00:12 73° E 17:06:17 10° SSE
USA 307 4.3 16:57:51 10° NNW 17:01:17 23° NNE 17:01:58 22° NE
Cosmos 1745 Rocket 4.1 16:55:37 10° N 17:01:47 54° E 17:07:57 10° SSE
Meteor 2-15 4.4 16:56:44 10° S 17:02:48 65° E 17:08:52 10° NNE
SKYMED 2 4.3 16:58:33 10° N 17:02:48 54° WNW 17:07:01 10° SSW
Cosmos 1939 Rocket 3.7 17:00:43 10° S 17:04:36 51° W 17:08:27 10° NNW
Cosmos 968 Rocket 3.5 17:00:46 10° NNW 17:05:55 56° ENE 17:09:17 21° SE
USA 308 4.3 17:02:37 10° NNW 17:06:07 24° NNE 17:06:35 23° NNE
Helios 1A Rocket 3.1 17:02:30 10° S 17:06:37 76° WSW 17:10:45 10° NNW
Aureole 3 4.0 17:04:09 10° SSW 17:07:18 42° W 17:10:11 10° N
Cosmos 1455 2.5 17:07:25 10° S 17:10:20 44° SE 17:10:20 44° SE
Cosmos 2219 3.2 17:05:38 10° NNW 17:11:26 90° W 17:17:11 10° SSE
CZ-2C R/B 3.2 17:09:56 10° SSE 17:15:45 83° ENE 17:21:28 10° N
SJ-11-01 4.2 17:13:18 26° SE 17:15:48 58° ENE 17:20:24 10° N
Aureole 3 Rocket 4.1 17:13:12 10° SSW 17:16:47 45° WNW 17:21:35 10° N
Cosmos 1386 Rocket 4.4 17:11:10 10° N 17:17:34 68° E 17:23:51 10° SSE
MOS 1 Rocket 3.2 17:16:08 10° NNE 17:20:49 72° E 17:25:48 10° S
Cosmos 2082 3.9 17:15:19 10° NNW 17:20:52 47° ENE 17:21:49 43° E
Cosmos 220 Rocket 3.8 17:16:56 10° SSW 17:21:15 79° ESE 17:22:54 37° NNE
Cosmos 1486 Rocket 3.9 17:16:11 10° NNW 17:21:33 81° ENE 17:25:23 19° SSE
Meteor 2-10 Rocket 3.5 17:20:23 10° S 17:25:46 87° W 17:30:58 10° N
CZ-4 R/B 2.0 17:22:39 10° S 17:26:28 53° W 17:30:16 10° NNW
Cosmos 2058 2.7 17:24:49 10° N 17:28:55 90° NNW 17:29:45 56° S
Cosmos 2369 3.6 17:24:57 10° SSW 17:30:36 67° ESE 17:32:47 38° NE
Cosmos 1503 Rocket 4.0 17:26:00 10° N 17:31:09 55° ENE 17:31:10 55° ENE
Cosmos 1709 Rocket 4.1 17:25:29 10° N 17:31:43 52° ENE 17:33:08 44° ESE
ARGOS 3.1 17:31:50 49° SE 17:33:01 62° ENE 17:38:23 10° N
Lacrosse 5 4.0 17:32:19 10° NNW 17:34:51 14° N 17:35:34 13° NNE
Atlas Centaur 2 3.8 17:31:21 10° SW 17:38:55 37° S 17:41:16 31° SE
Cosmos 1354 Rocket 4.2 17:36:50 10° NNW 17:41:21 55° NNE 17:41:21 55° NNE
Cosmos 883 Rocket 4.3 17:38:44 10° S 17:44:53 77° E 17:51:01 10° N
Cosmos 2315 Rocket 3.9 17:39:24 10° S 17:45:31 63° E 17:51:38 10° NNE
Meteor 2-1 Rocket 4.4 17:41:06 10° SSW 17:46:34 67° W 17:52:05 10° N
Cosmos 2227 Rocket 2.6 17:41:09 10° NNW 17:46:44 61° WSW 17:50:25 21° S
S3M 4.4 17:42:18 10° SSW 17:48:20 62° W 17:54:27 10° N
Cosmos 1892 4.4 17:45:00 10° NNW 17:48:30 33° W 17:52:00 10° SSW
CSL-04 Rocket 3.9 17:43:45 10° S 17:49:17 71° WSW 17:54:49 10° NNW
GEOS 3 Rocket 3.5 17:48:39 71° SE 17:49:17 90° N 17:54:42 10° NW
USA 305 4.5 17:48:46 10° NW 17:51:11 28° NNW 17:51:11 28° NNW
Cosmos 1992 Rocket 4.5 17:47:59 10° SSW 17:53:06 59° WNW 17:56:22 22° N
Cosmos 2263 Rocket 4.0 17:49:42 10° N 17:51:44 19° NNE 17:51:44 19° NNE
H-2A R/B 2.5 17:49:40 10° S 17:54:59 63° W 18:00:25 10° NNW
Cosmos 44 Rocket 4.4 17:50:59 10° SSW 17:53:34 33° SSW 17:53:34 33° SSW
SL-4 R/B 4.3 17:54:21 10° NW 17:55:22 15° NNW 17:55:22 15° NNW
Cosmos 1315 Rocket 4.1 17:55:21 10° SW 17:58:40 38° W 17:58:40 38° W
Cosmos 1346 Rocket 4.2 17:55:58 10° NNW 17:59:39 37° W 17:59:45 37° W
Cosmos 1697 Rocket 3.1 17:56:15 10° SW 18:01:46 59° WNW 18:04:15 32° N
Cosmos 1980 Rocket 3.5 18:18:18 10° SSW 18:21:06 31° SW 18:21:06 31° SW
Cosmos 2297 Rocket 4.3 18:22:04 10° NW 18:26:23 23° W 18:30:41 10° SSW
SeaSat 1 3.8 18:29:14 35° WNW 18:29:14 35° WNW 18:32:18 10° NW
NOSS 3-4 (A) 4.4 18:22:11 10° NNW 18:27:19 45° N 18:27:19 45° N
NOSS 3-4 (C) 4.4 18:22:18 10° NNW 18:27:24 45° N 18:27:24 45° N
USA 215 4.0 18:36:03 43° N 18:36:03 43° N 18:40:47 10° NW
ATLAS 2AS CENTAUR R/B 3.8 18:43:59 10° NNW 18:48:35 38° N 18:48:35 38° N
CZ-4C R/B 4.3 18:53:48 10° NNW 18:57:03 26° N 18:57:03 26° N
